This is the latest recevied weather packets stored in our database for station/object N5PRN. If no packets are shown the sender has not sent any weather packets the latest 1 day(s).
| Time | Temp. | Humidity | Pressure | Rain* | Wind** | Luminosity | Snow |
|---|---|---|---|---|---|---|---|
| 1778032595 | 23.89° C | 93% | 1008.6 hPa | 0 mm | - | 0 W/m² | - |
| 1778032292 | 23.89° C | 93% | 1008.3 hPa | 0 mm | - | 0 W/m² | - |
| 1778031079 | 23.89° C | 93% | 1008.6 hPa | 0 mm | - | 0 W/m² | - |
| 1778030471 | 23.89° C | 92% | 1008.3 hPa | 0 mm | - | 0 W/m² | - |
| 1778029560 | 24.44° C | 92% | 1008.2 hPa | 0 mm | - | 0 W/m² | - |
| 1778029256 | 24.44° C | 91% | 1008.1 hPa | 0 mm | - | 0 W/m² | - |
| 1778028953 | 24.44° C | 91% | 1008.2 hPa | 0 mm | - | 0 W/m² | - |
| 1778028649 | 24.44° C | 90% | 1008.2 hPa | 0 mm | - | 0 W/m² | - |
| 1778028347 | 24.44° C | 90% | 1008.2 hPa | 0 mm | - | 3 W/m² | - |
| 1778027740 | 25° C | 90% | 1008.6 hPa | 0 mm | - | 10 W/m² | - |
| 1778027436 | 25° C | 89% | 1008.4 hPa | 0 mm | - | 17 W/m² | - |
| 1778027132 | 25° C | 89% | 1008.2 hPa | 0 mm | - | 19 W/m² | - |
| 1778026828 | 25° C | 89% | 1008.3 hPa | 0 mm | - | 21 W/m² | - |
| 1778026222 | 25° C | 89% | 1008.2 hPa | 0 mm | - | 30 W/m² | - |
| 1778025920 | 25° C | 89% | 1008.2 hPa | 0 mm | - | 38 W/m² | - |
| 1778025315 | 25° C | 89% | 1008.2 hPa | 0 mm | - | 52 W/m² | - |
| 1778023498 | 25.56° C | 88% | 1008 hPa | 0 mm | - | 79 W/m² | - |
| 1778021371 | 25.56° C | 88% | 1008.4 hPa | 0 mm | - | 85 W/m² | - |
| 1778021068 | 25.56° C | 87% | 1008.5 hPa | 0 mm | - | 76 W/m² | - |
| 1778020765 | 25.56° C | 88% | 1008.4 hPa | 0 mm | - | 92 W/m² | - |
| 1778020158 | 25.56° C | 87% | 1008.4 hPa | 0 mm | - | 80 W/m² | - |
| 1778018641 | 25.56° C | 86% | 1008.2 hPa | 0 mm | - | 203 W/m² | - |
* Rain latest hour (hover to see other rain measurements)
** Current wind speed in m/s (hover to see current wind gust speed)